Weather in Es Canar

Spain     39°00′04″N   1°34′35″E
temp.,
°C
wind,
m/s
gust,
m/s
humid.,
%
clouds,
%
prec.,
mm/h
press.,
hPa
HPBL,
m
19 april, mon
mon1923:00+11sw45700 0.0 1022327
02:00+12ssw58690 0.0 1021394
05:00+12sw58740 0.0 1019377
08:00+13sw7107915 0.0 1018632
11:00+16sw897130 0.0 1018782
14:00+18sw776596 0.0 1017835
17:00+17sw5563100 0.0 1015647
20:00+15ssw3476100 0.0 1015191
20 april, tue
tue2023:00+14s2279100 0.0 101632
02:00+14s3475100 0.0 101575
05:00+14ssw4680100 0.0 1014186
08:00+14wsw3688100 0.0 1014229
11:00+18w1263100 0.0 1015375
14:00+18ssw336461 0.2 1014839
17:00+18ssw446391 0.1 1013782
20:00+16s237266 0.1 101399
21 april, wed
wed2123:00+15se117799 0.0 101415
02:00+15nw0180100 0.0 101412
05:00+15e1179100 0.1 101318
08:00+14n117981 0.2 101488
11:00+17ne116880 0.0 1015508
14:00+17e3265100 0.1 1014834
17:00+17ese4468100 0.1 1013631
20:00+15se3480100 0.1 1013328
22 april, thu
thu2223:00+14e2287100 0.0 101583
02:00+15ese3588100 0.0 1014270
05:00+14se2288100 0.3 101471
08:00+14sse2285100 0.4 1013128
11:00+17s227013 0.0 1014593
14:00+18ssw336713 0.4 1014820
17:00+18wsw13647 0.2 1013710
20:00+16ese337561 0.2 1015299
23 april, fri
fri2323:00+15e228733 0.0 101724
02:00+14ene22909 0.0 101657
05:00+14ene349099 0.0 1016214
08:00+14ene4588100 0.0 1017328
11:00+16e557697 0.0 1018531
14:00+17e557399 0.0 1018606
17:00+16e4474100 0.0 1017491
20:00+15ene5785100 0.0 1017445